Wind_Speed
86 82 76 73 61 59 58 58 51 50 46 47 48 52 49 41 36 37 50 61 57 56 60 57 51 41 39 37 36 35 39 37 36 36 36 36 39 40 39 36 35 36 37 34 36 39 42 43 43 42 38 34 33 36
83 79 77 67 65 69 61 59 54 49 46 47 49 49 48 43 38 37 59 61 60 62 61 58 51 45 41 41 36 39 37 36 39 39 37 41 42 41 40 38 36 39 37 34 39 42 41 43 44 41 38 37 38 40
82 79 73 64 62 62 59 55 52 51 50 49 49 47 45 44 38 35 45 43 55 59 61 60 55 47 44 43 45 51 47 43 42 41 42 44 45 43 40 36 39 39 37 37 39 40 41 45 42 42 41 41 42 42
79 73 64 68 64 60 64 52 50 52 51 49 46 44 41 42 39 36 36 38 50 59 60 61 56 52 46 47 47 51 47 45 44 49 49 49 48 44 41 40 40 39 37 36 38 39 44 43 42 41 41 42 43 44
77 72 67 65 63 59 51 53 47 49 52 53 46 42 43 43 38 35 36 43 50 55 60 64 60 53 51 55 51 50 51 47 48 52 49 47 45 41 40 39 40 36 34 35 41 44 44 43 43 44 45 45 45 45
75 72 60 60 59 61 59 50 48 52 53 51 47 43 42 40 40 37 39 42 44 53 58 59 60 56 60 56 52 55 53 52 47 43 45 43 41 39 38 36 34 34 34 39 45 46 46 47 46 47 48 47 47 48
57 55 59 60 58 56 56 53 50 50 49 46 45 44 42 41 40 39 36 37 40 45 48 54 61 57 54 48 43 42 42 44 43 43 38 36 35 35 36 35 30 32 37 42 43 43 45 45 46 47 47 48 49 49
63 59 62 59 59 55 51 50 49 47 45 43 41 41 41 39 40 36 32 35 38 38 30 41 43 41 37 36 33 33 36 38 38 35 34 33 33 34 34 31 33 36 39 42 42 42 43 44 45 46 46 48 50 51
61 63 67 66 60 54 51 49 47 45 43 40 38 37 35 36 35 34 33 27 26 28 28 28 33 34 33 35 36 33 32 33 33 33 32 32 31 32 31 33 36 39 42 41 42 43 43 45 46 46 47 49 51 53
59 63 65 66 60 54 48 44 43 43 39 36 34 33 34 33 32 29 27 29 29 30 30 28 28 30 31 33 32 32 33 33 32 31 30 30 30 31 33 35 37 39 40 41 42 43 44 44 44 45 48 51 53 55
65 63 63 60 54 48 43 39 38 38 36 34 31 28 26 27 30 31 33 33 32 32 27 26 26 28 27 29 31 32 31 31 31 30 31 30 29 30 32 37 39 40 42 43 44 44 44 45 46 49 52 55 57 60
61 59 58 56 51 46 42 37 34 34 33 30 30 34 34 33 32 32 31 31 29 26 25 24 24 25 26 27 28 28 29 31 32 28 30 30 28 32 36 37 39 41 41 42 43 44 45 48 50 53 56 58 62 65
59 58 52 48 45 41 38 34 35 35 34 35 34 34 32 32 32 30 25 22 19 18 19 22 23 24 25 27 28 30 31 30 28 29 29 27 30 33 36 38 39 40 42 42 43 45 47 51 54 57 59 62 66 68
52 48 45 43 41 38 37 36 35 35 35 32 29 29 31 31 27 21 20 19 20 21 22 23 25 25 26 28 29 28 28 28 29 28 25 30 33 36 37 38 40 40 41 42 44 48 51 54 57 60 63 66 69 71
46 44 41 40 39 37 36 35 33 31 30 28 29 26 24 17 18 19 20 22 22 23 23 23 25 27 28 27 26 25 27 29 27 28 32 34 36 36 37 38 39 40 42 45 48 52 55 58 61 64 67 69 72 74
41 39 38 36 33 31 30 30 29 29 28 26 23 20 16 18 20 20 21 20 21 22 23 24 23 22 23 24 23 26 28 26 29 32 33 33 35 37 38 39 40 43 45 49 53 56 59 62 64 67 70 72 75 78
37 35 34 35 33 31 30 29 28 28 27 24 21 20 21 23 23 22 20 19 19 21 22 22 22 21 23 25 24 24 27 30 32 33 34 36 37 37 39 41 44 46 50 53 56 59 62 65 67 70 73 74 79 83
29 28 28 28 27 28 27 27 25 23 23 24 24 23 22 23 23 23 22 22 23 23 22 22 23 24 23 24 27 29 31 31 31 32 34 36 37 39 42 44 47 51 54 56 59 63 65 67 70 74 77 81 83 84
30 30 29 29 29 27 25 25 25 23 23 22 22 23 22 22 23 23 22 21 21 21 21 22 23 24 26 27 28 29 29 30 32 33 35 36 39 42 45 48 51 54 56 60 62 64 67 70 74 79 82 83 83 81
33 31 29 28 28 27 26 24 24 25 23 21 20 20 20 21 20 21 21 20 20 22 23 24 26 25 26 27 28 29 30 32 33 35 37 40 42 45 48 51 54 56 59 62 64 66 69 72 78 80 80 79 79 76
33 32 31 28 26 25 25 25 23 22 21 21 20 21 21 20 20 19 20 21 22 23 24 24 24 25 26 28 29 30 32 33 35 38 40 43 45 48 51 53 55 58 62 64 66 69 74 77 79 80 78 75 73 70
29 28 26 26 25 24 23 22 21 21 21 20 19 18 19 21 21 21 21 22 24 25 24 26 26 27 28 29 31 32 33 36 38 41 43 46 48 50 52 54 58 61 64 66 71 74 76 78 78 75 73 69 65 59
29 28 26 25 26 25 25 24 23 21 21 21 23 23 22 23 23 23 23 26 26 26 26 27 29 30 30 31 32 34 36 39 41 43 46 48 49 51 54 58 62 64 66 70 73 76 76 74 72 69 66 60 55 49
26 26 25 25 24 24 23 22 22 23 24 24 22 22 23 24 25 25 26 26 26 27 28 29 30 31 33 34 36 38 39 40 42 44 47 49 51 54 57 61 64 68 72 75 76 74 73 69 66 62 56 51 47 43
27 29 28 25 24 24 24 23 22 21 20 22 24 25 25 25 24 25 25 25 27 28 29 30 32 34 35 37 38 39 41 43 45 47 50 53 56 58 62 66 69 72 74 74 72 69 66 63 59 54 48 45 41 40
28 25 24 23 24 23 22 22 22 23 25 26 26 25 24 25 26 25 27 29 30 30 31 33 34 35 35 37 39 41 42 45 48 51 54 57 59 62 65 67 71 72 72 71 68 65 61 57 51 48 43 39 37 38
28 24 24 25 25 25 25 26 27 27 27 26 26 26 26 26 26 27 28 29 30 31 32 33 35 36 38 40 41 43 45 48 51 54 57 59 62 65 69 71 71 70 68 67 65 62 58 52 46 42 39 36 36 37
28 28 29 29 29 29 28 28 26 24 24 24 26 26 26 26 26 27 29 30 32 33 34 35 37 39 41 43 44 46 49 52 54 58 60 63 66 69 70 70 69 67 64 62 59 55 53 48 43 39 36 35 36 36
31 31 30 29 28 27 26 24 23 24 26 26 27 27 27 27 28 29 30 31 33 34 35 37 38 40 42 45 48 50 52 55 58 61 64 67 68 68 67 65 63 60 57 54 52 50 47 43 39 36 35 34 34 33
29 28 27 28 27 26 25 25 25 25 27 27 27 27 27 28 29 31 32 33 34 35 38 40 42 44 46 48 50 53 56 59 62 64 65 65 64 62 60 58 56 54 53 52 48 44 41 37 35 35 34 33 30 28
28 27 26 25 25 24 25 25 26 26 26 26 27 28 30 30 32 32 33 34 36 38 41 42 44 46 49 52 55 57 60 63 64 64 63 60 58 56 54 53 52 52 51 48 42 37 33 30 30 30 29 28 25 24
25 24 24 24 24 24 24 24 25 26 26 26 27 28 29 30 31 33 35 37 40 41 43 45 48 51 55 58 61 63 64 64 61 58 56 54 53 50 47 49 50 50 46 41 36 31 28 26 25 24 24 23 22 21
26 25 25 25 25 25 25 24 24 24 26 26 27 28 29 30 31 33 36 38 41 45 48 51 54 57 59 60 60 60 59 57 55 53 51 49 46 42 43 46 48 45 40 35 30 26 24 22 20 19 18 18 19 19
Wind_Direction
179 179 178 177 179 189 192 194 188 189 187 195 198 197 194 196 198 205 205 196 194 201 206 208 212 216 217 224 226 229 234 237 239 242 248 253 259 263 268 271 274 274 275 277 280 284 287 294 298 306 303 298 291 285
175 175 175 178 184 188 193 196 191 190 191 197 198 197 199 200 204 206 203 199 199 206 209 211 213 218 217 219 222 227 233 240 244 244 249 260 263 261 265 269 273 275 278 283 281 285 295 298 302 301 297 292 289 286
173 174 173 176 181 191 192 190 194 191 187 194 195 199 198 200 203 209 212 216 212 209 212 211 215 218 221 222 229 229 232 238 243 245 249 253 256 261 265 266 268 272 275 278 282 290 292 296 297 295 295 293 290 289
171 169 173 180 187 192 194 191 189 188 186 187 191 197 196 199 203 209 216 217 212 214 215 215 212 220 221 225 233 236 233 243 247 248 252 255 265 268 265 265 265 268 273 278 285 289 292 293 294 295 293 293 292 290
168 170 177 185 190 188 193 188 181 185 185 191 197 194 196 199 204 213 218 216 216 219 223 217 215 217 222 227 232 238 236 240 246 252 259 269 267 264 265 269 273 275 279 284 287 291 293 294 296 297 300 299 297 296
169 173 178 179 183 191 186 180 184 187 190 196 196 196 203 208 209 215 219 218 218 223 221 222 220 221 226 230 233 239 243 249 254 265 266 264 262 262 263 266 269 276 284 288 293 295 294 298 300 299 298 299 296 294
175 179 179 180 172 169 175 181 182 183 187 193 198 201 206 210 215 218 221 222 221 225 227 228 228 231 232 237 249 258 260 257 258 257 257 257 258 262 266 268 275 278 280 284 284 287 293 293 293 296 296 296 297 300
177 177 174 178 172 171 174 176 179 183 189 193 196 200 205 209 214 215 218 225 225 226 229 240 243 242 244 243 246 249 247 249 252 255 257 257 258 262 269 277 280 284 282 281 287 290 291 294 295 295 296 296 299 300
177 177 175 174 172 170 171 176 180 185 190 193 197 202 207 212 215 215 219 224 224 228 228 227 236 237 237 238 242 244 248 253 251 253 255 257 260 268 275 277 281 280 283 289 291 292 294 295 296 296 296 298 298 298
173 171 174 171 170 172 175 178 181 187 191 194 198 203 208 209 210 209 210 210 210 215 219 219 220 227 230 233 237 242 243 246 251 254 255 258 264 270 278 280 279 282 287 288 286 289 292 293 293 295 296 297 298 299
171 170 168 169 172 175 177 179 185 191 193 196 199 204 201 193 191 194 197 198 199 202 202 214 219 224 228 236 240 244 248 251 253 253 260 266 270 276 276 278 285 288 286 289 293 294 293 294 296 296 297 299 301 302
168 169 170 170 171 174 177 181 182 184 187 188 183 180 179 185 191 195 198 200 203 206 210 215 221 228 236 239 242 246 247 249 252 260 264 273 278 277 279 281 281 284 289 291 291 293 295 296 297 299 302 303 304 305
166 169 171 172 173 175 177 177 177 175 176 177 179 180 184 189 193 196 198 195 197 203 215 223 229 233 235 236 241 243 250 257 263 264 270 278 278 277 277 281 285 287 289 291 293 296 297 298 300 302 303 304 305 307
164 165 166 167 169 172 176 177 178 178 176 182 184 188 192 196 196 192 196 199 208 215 221 223 226 229 234 238 243 250 256 261 264 272 278 275 275 278 281 284 287 291 293 294 297 297 298 300 302 303 305 307 308 309
160 162 164 165 170 174 176 180 181 182 187 187 192 196 203 201 202 204 209 215 216 217 221 225 231 233 238 245 251 257 264 268 274 277 274 275 278 282 286 289 291 293 294 295 297 299 301 303 305 308 308 309 312 315
153 157 162 165 169 172 175 178 181 186 187 192 195 195 191 201 211 212 213 217 223 228 235 238 241 244 247 253 257 261 265 271 269 270 277 280 284 287 289 291 292 293 296 298 300 302 305 307 308 308 311 314 315 315
153 161 164 170 173 172 172 174 177 184 189 193 192 196 199 204 210 213 218 223 225 230 233 238 243 246 250 252 261 265 265 272 277 280 283 284 286 289 290 292 295 299 300 301 304 306 307 308 310 312 314 315 315 316
162 165 169 170 172 175 178 179 181 185 188 194 198 199 206 210 213 217 220 224 227 229 233 236 243 252 260 262 261 266 270 272 275 279 282 285 289 292 294 296 299 301 303 306 307 307 310 312 314 315 316 316 316 315
165 170 173 174 173 175 179 182 184 188 193 200 204 208 214 217 219 223 226 232 238 241 245 250 253 256 257 264 270 271 273 276 281 283 287 290 292 294 297 300 302 304 306 307 309 311 313 315 316 316 317 316 316 316
169 170 172 176 178 181 183 188 194 199 202 206 214 220 224 226 229 232 235 239 243 246 249 252 258 266 267 268 272 275 279 283 286 288 291 293 296 300 302 303 304 306 308 310 313 314 315 315 316 316 316 316 316 316
168 170 172 175 178 184 188 192 195 200 208 214 219 223 226 229 233 238 243 246 249 253 257 261 264 266 267 271 276 280 282 285 289 292 295 298 300 301 303 306 308 310 310 313 314 315 316 316 317 316 316 316 316 315
172 170 173 179 184 190 195 197 201 206 213 218 224 230 235 239 242 246 253 256 261 264 263 262 264 269 275 278 280 284 289 292 295 297 298 300 302 304 307 309 310 311 312 314 315 317 317 317 316 317 317 316 316 317
175 179 182 185 193 196 200 203 207 213 220 225 231 235 239 245 251 256 257 259 259 260 264 268 272 275 278 282 287 290 292 295 297 298 300 302 305 308 311 311 311 312 315 315 317 317 317 317 318 318 317 316 317 319
185 190 196 204 207 206 214 216 220 224 227 230 234 238 244 248 250 250 252 257 262 266 270 274 277 281 284 286 289 291 294 297 299 301 303 307 309 309 309 310 313 316 317 318 318 317 317 318 318 318 317 316 317 319
197 203 206 208 210 213 216 220 223 230 237 238 241 243 246 250 250 252 258 265 269 271 274 278 281 283 284 288 292 295 298 301 304 305 306 307 309 312 314 315 316 316 317 316 316 317 318 318 319 318 318 317 317 317
208 210 212 215 217 221 225 226 227 229 234 237 240 245 249 251 255 261 263 265 268 271 274 278 282 288 293 295 296 298 301 303 304 305 307 310 313 313 315 315 315 315 316 316 317 318 319 320 319 318 317 316 316 318
211 212 213 216 216 218 221 224 226 228 232 237 240 244 249 254 258 261 265 270 274 279 283 288 291 292 292 294 297 299 301 303 305 307 310 312 313 314 314 314 314 315 316 316 317 318 320 321 320 318 317 318 318 318
204 210 213 216 218 221 224 225 228 233 239 245 251 256 258 260 263 268 272 276 280 284 287 289 290 292 294 298 301 303 303 305 307 309 311 311 313 313 314 314 315 315 316 317 319 320 321 321 320 320 319 319 317 318
208 211 215 218 224 227 230 234 238 242 246 249 253 257 262 266 270 273 277 280 281 283 286 289 290 292 293 296 300 303 306 308 309 310 312 313 313 313 314 314 314 315 317 318 318 318 318 317 318 319 318 318 317 318
215 219 222 226 230 235 239 243 247 251 255 258 262 265 269 271 274 276 278 280 283 285 287 289 292 295 298 301 304 306 307 308 310 310 311 310 311 311 311 310 312 315 316 317 317 315 314 315 315 317 318 319 319 319
223 226 230 233 234 237 241 245 248 251 256 261 264 266 269 271 273 275 279 282 285 287 290 293 297 300 302 303 304 306 307 308 309 309 309 308 307 307 308 310 312 315 316 317 316 314 313 314 315 316 318 319 320 320
224 228 232 235 238 241 245 248 252 254 257 260 263 267 270 274 278 282 285 288 291 295 298 299 299 300 302 304 305 307 307 307 307 306 305 304 304 306 307 310 313 317 318 318 316 313 314 315 317 321 325 327 328 327
228 231 233 236 239 241 244 248 253 258 261 265 268 272 275 279 282 285 288 291 292 294 296 297 299 301 303 304 305 305 304 304 304 303 301 300 301 303 307 312 316 317 317 316 313 311 313 314 317 324 331 338 343 343
Height
5445 5467 5486 5503 5519 5534 5549 5560 5572 5583 5594 5604 5612 5622 5633 5643 5651 5658 5665 5673 5683 5693 5703 5708 5715 5728 5736 5741 5747 5752 5753 5755 5757 5758 5760 5762 5764 5765 5765 5764 5763 5763 5761 5761 5759 5756 5753 5751 5748 5748 5743 5738 5734 5729
5446 5466 5483 5501 5517 5532 5544 5556 5568 5579 5589 5599 5608 5618 5629 5638 5646 5652 5660 5667 5677 5687 5696 5703 5712 5720 5727 5732 5735 5738 5743 5748 5750 5749 5752 5753 5754 5756 5755 5753 5753 5751 5751 5752 5750 5746 5745 5740 5738 5734 5730 5727 5722 5719
5446 5464 5484 5502 5516 5528 5540 5553 5564 5574 5584 5594 5604 5615 5625 5634 5642 5649 5656 5663 5671 5680 5689 5695 5704 5712 5719 5724 5725 5730 5735 5739 5740 5742 5743 5743 5744 5746 5745 5745 5743 5741 5741 5741 5738 5738 5735 5731 5728 5724 5719 5715 5711 5709
5448 5467 5484 5501 5514 5525 5538 5550 5560 5570 5580 5590 5601 5612 5621 5629 5637 5644 5651 5659 5666 5675 5681 5689 5696 5704 5710 5715 5716 5721 5727 5731 5733 5734 5734 5735 5737 5737 5736 5734 5732 5732 5732 5732 5730 5729 5724 5720 5717 5712 5708 5704 5700 5697
5451 5469 5486 5499 5511 5523 5535 5547 5556 5567 5577 5589 5599 5609 5617 5625 5633 5641 5647 5652 5660 5668 5672 5681 5689 5695 5700 5705 5709 5714 5717 5719 5723 5724 5726 5729 5728 5727 5725 5722 5721 5723 5724 5722 5718 5715 5712 5708 5705 5700 5696 5692 5689 5685
5451 5470 5484 5497 5509 5521 5534 5544 5555 5565 5576 5587 5596 5606 5614 5621 5629 5636 5641 5647 5653 5659 5667 5672 5681 5686 5691 5694 5699 5703 5707 5710 5714 5716 5718 5717 5717 5717 5715 5714 5715 5715 5714 5710 5705 5701 5697 5695 5692 5688 5684 5681 5677 5673
5455 5469 5483 5496 5508 5519 5532 5542 5553 5564 5574 5584 5594 5601 5609 5616 5624 5629 5637 5644 5648 5654 5660 5666 5672 5678 5684 5690 5694 5698 5702 5704 5706 5706 5707 5707 5707 5706 5704 5706 5709 5708 5706 5703 5698 5695 5692 5687 5683 5679 5675 5670 5665 5660
5458 5471 5483 5497 5509 5520 5531 5542 5552 5562 5574 5583 5590 5598 5605 5612 5617 5627 5632 5636 5642 5648 5655 5660 5667 5675 5681 5687 5689 5690 5692 5694 5695 5697 5698 5697 5697 5696 5697 5700 5700 5698 5694 5689 5688 5685 5680 5676 5672 5667 5663 5659 5654 5648
5460 5472 5486 5498 5510 5522 5533 5543 5553 5564 5572 5580 5588 5595 5601 5607 5614 5621 5628 5634 5639 5648 5651 5656 5664 5667 5672 5678 5680 5682 5684 5685 5687 5688 5689 5688 5689 5689 5691 5691 5689 5685 5682 5679 5676 5673 5669 5665 5660 5656 5652 5648 5643 5637
5465 5477 5488 5499 5512 5523 5534 5544 5553 5562 5571 5578 5586 5592 5598 5604 5611 5619 5624 5628 5634 5638 5643 5648 5654 5659 5666 5669 5672 5676 5676 5677 5678 5680 5679 5681 5682 5683 5682 5680 5677 5674 5673 5671 5666 5663 5659 5654 5650 5646 5641 5636 5629 5623
5467 5479 5491 5503 5514 5525 5535 5544 5554 5562 5569 5577 5583 5591 5597 5601 5607 5612 5617 5622 5627 5632 5639 5644 5650 5654 5659 5663 5665 5666 5667 5668 5669 5672 5673 5674 5675 5676 5673 5669 5667 5664 5660 5657 5655 5651 5646 5642 5638 5633 5627 5621 5614 5607
5472 5483 5495 5507 5517 5527 5538 5546 5554 5562 5570 5577 5584 5588 5592 5597 5603 5607 5611 5616 5623 5631 5636 5642 5646 5650 5653 5655 5656 5658 5660 5660 5661 5666 5665 5665 5667 5664 5661 5659 5655 5653 5650 5647 5643 5639 5634 5629 5625 5619 5613 5607 5599 5590
5477 5489 5500 5510 5520 5530 5538 5546 5554 5561 5568 5573 5576 5581 5588 5594 5598 5603 5611 5620 5626 5630 5634 5638 5641 5643 5645 5648 5649 5650 5651 5654 5656 5656 5657 5660 5657 5653 5651 5648 5646 5643 5640 5636 5632 5627 5622 5617 5611 5605 5598 5590 5582 5573
5484 5494 5503 5513 5522 5531 5539 5548 5554 5558 5564 5571 5576 5584 5588 5592 5599 5609 5612 5616 5621 5624 5627 5631 5633 5637 5639 5640 5642 5644 5645 5647 5647 5649 5651 5647 5644 5643 5641 5638 5636 5632 5628 5624 5619 5614 5609 5603 5597 5589 5581 5572 5564 5555
5488 5497 5507 5517 5525 5532 5540 5546 5553 5561 5567 5573 5579 5580 5588 5597 5600 5604 5608 5612 5616 5618 5622 5625 5628 5631 5632 5633 5636 5639 5640 5639 5642 5641 5637 5636 5635 5633 5631 5628 5624 5621 5617 5612 5608 5603 5596 5589 5581 5574 5565 5556 5545 5536
5492 5500 5509 5518 5526 5533 5539 5545 5551 5558 5564 5569 5575 5583 5588 5593 5596 5600 5603 5608 5612 5615 5618 5621 5622 5625 5627 5629 5632 5632 5632 5632 5630 5628 5628 5627 5625 5623 5620 5616 5614 5609 5604 5600 5595 5588 5580 5573 5566 5558 5549 5538 5527 5516
5498 5504 5513 5520 5526 5533 5540 5546 5551 5556 5563 5570 5575 5580 5584 5588 5592 5597 5600 5604 5607 5610 5612 5614 5617 5620 5621 5622 5624 5624 5623 5622 5622 5620 5619 5617 5615 5612 5609 5606 5602 5596 5592 5586 5579 5571 5565 5558 5550 5540 5531 5521 5509 5496
5501 5508 5514 5522 5528 5534 5540 5546 5552 5558 5564 5569 5573 5579 5582 5587 5590 5593 5595 5598 5601 5603 5606 5609 5611 5613 5615 5614 5613 5614 5615 5614 5612 5611 5609 5607 5603 5601 5598 5594 5589 5584 5577 5570 5564 5558 5550 5541 5532 5523 5512 5501 5489 5476
5504 5510 5517 5522 5528 5535 5541 5547 5553 5558 5563 5567 5572 5577 5581 5585 5588 5589 5591 5593 5597 5600 5602 5604 5606 5606 5606 5607 5608 5607 5606 5605 5603 5601 5599 5596 5593 5591 5586 5581 5576 5570 5564 5557 5550 5542 5533 5524 5513 5502 5491 5477 5466 5455
5503 5510 5517 5524 5530 5535 5541 5546 5552 5557 5560 5565 5569 5571 5574 5578 5582 5585 5588 5590 5592 5595 5597 5597 5597 5599 5599 5598 5598 5598 5597 5595 5593 5591 5589 5586 5583 5578 5572 5567 5562 5556 5550 5543 5535 5526 5517 5507 5495 5483 5470 5457 5445 5435
5507 5513 5519 5525 5531 5536 5541 5545 5549 5552 5556 5561 5564 5568 5572 5575 5577 5581 5584 5586 5588 5588 5588 5590 5590 5590 5590 5590 5589 5588 5586 5585 5583 5581 5578 5575 5571 5565 5559 5553 5548 5542 5535 5528 5520 5510 5498 5487 5475 5464 5452 5441 5429 5417
5510 5514 5519 5523 5528 5534 5538 5543 5547 5551 5554 5558 5562 5565 5568 5571 5574 5576 5577 5578 5579 5580 5582 5582 5582 5582 5581 5581 5580 5579 5578 5576 5573 5570 5567 5562 5556 5551 5546 5541 5534 5527 5520 5511 5501 5491 5479 5467 5455 5444 5433 5424 5413 5403
5508 5513 5517 5522 5526 5530 5535 5540 5544 5548 5551 5555 5558 5561 5564 5566 5567 5569 5571 5572 5573 5573 5574 5575 5575 5575 5574 5572 5571 5570 5567 5564 5561 5557 5553 5548 5543 5538 5532 5525 5518 5511 5504 5493 5483 5472 5461 5449 5438 5427 5417 5408 5398 5392
5505 5510 5515 5520 5524 5530 5535 5538 5542 5545 5548 5551 5554 5555 5557 5559 5561 5563 5564 5565 5566 5566 5567 5567 5567 5566 5564 5563 5561 5558 5555 5552 5548 5544 5540 5536 5531 5526 5518 5510 5502 5493 5483 5473 5464 5454 5444 5433 5422 5412 5403 5395 5388 5381
5507 5509 5515 5519 5524 5528 5531 5533 5537 5540 5543 5546 5548 5549 5550 5553 5555 5556 5557 5558 5558 5558 5559 5558 5557 5555 5553 5551 5549 5546 5543 5539 5535 5532 5528 5523 5518 5511 5501 5491 5483 5475 5466 5457 5448 5439 5429 5418 5408 5398 5391 5384 5378 5373
5503 5508 5514 5517 5520 5525 5528 5530 5533 5535 5537 5539 5541 5543 5545 5546 5547 5549 5550 5550 5550 5550 5549 5548 5546 5545 5543 5541 5537 5534 5531 5527 5523 5518 5513 5507 5501 5493 5486 5479 5468 5459 5449 5439 5430 5422 5414 5404 5395 5387 5381 5375 5370 5364
5498 5504 5509 5512 5515 5518 5521 5523 5526 5528 5530 5533 5535 5537 5539 5540 5541 5542 5541 5541 5541 5540 5538 5537 5535 5533 5531 5528 5525 5522 5519 5514 5509 5504 5498 5491 5484 5477 5469 5461 5453 5443 5434 5424 5415 5406 5398 5391 5384 5377 5371 5366 5361 5356
5495 5499 5503 5507 5509 5512 5515 5517 5520 5523 5526 5527 5529 5530 5531 5532 5532 5532 5532 5531 5530 5529 5528 5527 5525 5523 5520 5517 5513 5510 5506 5501 5494 5487 5482 5476 5468 5460 5451 5442 5434 5426 5418 5408 5400 5392 5385 5378 5372 5367 5362 5357 5352 5347
5490 5494 5498 5502 5506 5509 5511 5513 5514 5516 5518 5520 5521 5522 5523 5523 5522 5522 5522 5521 5520 5519 5517 5515 5513 5511 5508 5505 5501 5497 5491 5485 5479 5473 5465 5458 5450 5443 5435 5426 5418 5411 5404 5397 5388 5381 5375 5369 5364 5359 5354 5350 5345 5340
5486 5490 5494 5497 5500 5502 5504 5506 5508 5511 5512 5513 5513 5513 5514 5514 5514 5513 5512 5512 5511 5509 5507 5504 5501 5498 5495 5491 5486 5482 5476 5469 5463 5457 5451 5443 5436 5428 5421 5414 5406 5399 5393 5386 5379 5372 5365 5361 5356 5351 5346 5342 5338 5334
5482 5485 5488 5491 5493 5495 5497 5498 5500 5501 5502 5503 5503 5504 5504 5504 5503 5503 5503 5502 5500 5498 5495 5493 5489 5485 5481 5477 5472 5467 5461 5455 5447 5440 5433 5426 5420 5414 5407 5400 5394 5388 5381 5374 5368 5363 5358 5354 5350 5345 5341 5337 5333 5329
5475 5478 5481 5484 5486 5488 5490 5491 5492 5493 5494 5494 5495 5495 5495 5495 5495 5494 5492 5490 5487 5484 5481 5478 5474 5470 5466 5460 5455 5450 5444 5437 5431 5424 5418 5411 5405 5400 5394 5388 5382 5376 5370 5364 5359 5354 5351 5347 5344 5340 5336 5332 5328 5325
5469 5471 5474 5477 5478 5480 5482 5484 5485 5486 5487 5487 5487 5487 5487 5486 5485 5483 5481 5479 5476 5473 5470 5466 5461 5455 5451 5446 5439 5433 5426 5420 5414 5408 5402 5397 5392 5388 5383 5377 5372 5365 5360 5356 5351 5348 5345 5342 5339 5336 5333 5329 5326 5322